Year,Month,Day,Hour,Minute,Value (Times are PST for temperature in C)
2013,08,04,09,20,17.40
2013,08,04,09,21,17.40
2013,08,04,09,22,17.40
2013,08,04,09,23,17.40
2013,08,04,09,24,17.40
2013,08,04,09,25,17.40
2013,08,04,09,26,17.40
2013,08,04,09,27,17.40
2013,08,04,09,28,17.50
2013,08,04,09,29,17.50
2013,08,04,09,30,17.60
2013,08,04,09,31,17.70
2013,08,04,09,32,17.80
2013,08,04,09,33,17.90
2013,08,04,09,34,18.00
2013,08,04,09,35,18.10
2013,08,04,09,36,18.10
2013,08,04,09,37,18.10
2013,08,04,09,38,18.10
2013,08,04,09,39,18.20
2013,08,04,09,40,18.20
2013,08,04,09,41,18.20
2013,08,04,09,42,18.30
2013,08,04,09,43,18.30
2013,08,04,09,44,18.30
2013,08,04,09,45,18.30
2013,08,04,09,46,18.30
2013,08,04,09,47,18.30
2013,08,04,09,48,18.30
2013,08,04,09,49,18.30
2013,08,04,09,50,18.30
2013,08,04,09,51,18.20
2013,08,04,09,52,18.20
2013,08,04,09,53,18.20
2013,08,04,09,54,18.20
2013,08,04,09,55,18.20
2013,08,04,09,56,18.20
2013,08,04,09,57,18.20
2013,08,04,09,58,18.30
2013,08,04,09,59,18.20
2013,08,04,10,00,18.20
2013,08,04,10,01,18.20
2013,08,04,10,02,18.30
2013,08,04,10,03,18.30
2013,08,04,10,04,18.30
2013,08,04,10,05,18.40
2013,08,04,10,06,18.40
2013,08,04,10,07,18.40
2013,08,04,10,08,18.40
2013,08,04,10,09,18.40
2013,08,04,10,10,18.40
2013,08,04,10,11,18.40
2013,08,04,10,12,18.40
2013,08,04,10,13,18.50
2013,08,04,10,14,18.50
2013,08,04,10,15,18.50
2013,08,04,10,16,18.50
2013,08,04,10,17,18.50
2013,08,04,10,18,18.60
2013,08,04,10,19,18.50
2013,08,04,10,20,18.60
2013,08,04,10,21,18.60
2013,08,04,10,22,18.60
2013,08,04,10,23,18.70
2013,08,04,10,24,18.70
2013,08,04,10,25,18.80
2013,08,04,10,26,18.80
2013,08,04,10,27,18.90
2013,08,04,10,28,19.00
2013,08,04,10,29,19.10
2013,08,04,10,30,19.10
2013,08,04,10,31,19.10
2013,08,04,10,32,19.20
2013,08,04,10,33,19.20
2013,08,04,10,34,19.20
2013,08,04,10,35,19.20
2013,08,04,10,36,19.20
2013,08,04,10,37,19.30
2013,08,04,10,38,19.30
2013,08,04,10,39,19.20
2013,08,04,10,40,19.30
2013,08,04,10,41,19.30
2013,08,04,10,42,19.40
2013,08,04,10,43,19.40
2013,08,04,10,44,19.40
2013,08,04,10,45,19.50
2013,08,04,10,46,19.60
2013,08,04,10,47,19.70
2013,08,04,10,48,19.70
2013,08,04,10,49,19.70
2013,08,04,10,50,19.70
2013,08,04,10,51,19.70
2013,08,04,10,52,19.80
2013,08,04,10,53,19.80
2013,08,04,10,54,19.80
2013,08,04,10,55,19.80
2013,08,04,10,56,19.80
2013,08,04,10,57,19.80
2013,08,04,10,58,19.80
2013,08,04,10,59,19.80
2013,08,04,11,00,19.80
2013,08,04,11,01,19.80
2013,08,04,11,02,19.80
2013,08,04,11,03,19.80
2013,08,04,11,04,19.80
2013,08,04,11,05,19.80
2013,08,04,11,06,19.80
2013,08,04,11,07,19.80
2013,08,04,11,08,19.80
2013,08,04,11,09,19.80
2013,08,04,11,10,19.90
2013,08,04,11,11,19.90
2013,08,04,11,12,19.90
2013,08,04,11,13,20.00
2013,08,04,11,14,20.00
2013,08,04,11,15,20.10
2013,08,04,11,16,20.00
2013,08,04,11,17,20.00
2013,08,04,11,18,19.90
2013,08,04,11,19,19.90
2013,08,04,11,20,19.80
2013,08,04,11,21,19.80
2013,08,04,11,22,19.70
2013,08,04,11,23,19.70
2013,08,04,11,24,19.70
2013,08,04,11,25,19.60
2013,08,04,11,26,19.70
2013,08,04,11,27,19.70
2013,08,04,11,28,19.80
2013,08,04,11,29,19.80
2013,08,04,11,30,19.90
2013,08,04,11,31,19.90
2013,08,04,11,32,19.90
2013,08,04,11,33,20.00
2013,08,04,11,34,20.00
2013,08,04,11,35,19.90
2013,08,04,11,36,19.90
2013,08,04,11,37,19.90
2013,08,04,11,38,19.90
2013,08,04,11,39,19.90
2013,08,04,11,40,19.80
2013,08,04,11,41,19.80
2013,08,04,11,42,19.80
2013,08,04,11,43,19.80
2013,08,04,11,44,19.80
2013,08,04,11,45,19.80
2013,08,04,11,46,19.80
2013,08,04,11,47,19.80
2013,08,04,11,48,19.80
2013,08,04,11,49,19.90
2013,08,04,11,50,19.90
2013,08,04,11,51,19.90
2013,08,04,11,52,20.00
2013,08,04,11,53,20.00
2013,08,04,11,54,20.10
2013,08,04,11,55,20.10
2013,08,04,11,56,20.20
2013,08,04,11,57,20.20
2013,08,04,11,58,20.20
2013,08,04,11,59,20.20
2013,08,04,12,00,20.20
2013,08,04,12,01,20.20
2013,08,04,12,02,20.20
2013,08,04,12,03,20.20
2013,08,04,12,04,20.20
2013,08,04,12,05,20.10
2013,08,04,12,06,20.10
2013,08,04,12,07,20.20
2013,08,04,12,08,20.20
2013,08,04,12,09,20.10
2013,08,04,12,10,20.10
2013,08,04,12,11,20.10
2013,08,04,12,12,20.10
2013,08,04,12,13,20.20
2013,08,04,12,14,20.20
2013,08,04,12,15,20.30
2013,08,04,12,16,20.30
2013,08,04,12,17,20.30
2013,08,04,12,18,20.30
2013,08,04,12,19,20.30
2013,08,04,12,20,20.30
2013,08,04,12,21,20.30
2013,08,04,12,22,20.20
2013,08,04,12,23,20.30
2013,08,04,12,24,20.30
2013,08,04,12,25,20.30
2013,08,04,12,26,20.30
2013,08,04,12,27,20.30
2013,08,04,12,28,20.30
2013,08,04,12,29,20.30
2013,08,04,12,30,20.30
2013,08,04,12,31,20.30
2013,08,04,12,32,20.40
2013,08,04,12,33,20.30
2013,08,04,12,34,20.30
2013,08,04,12,35,20.30
2013,08,04,12,36,20.30
2013,08,04,12,37,20.30
2013,08,04,12,38,20.30
2013,08,04,12,39,20.30
2013,08,04,12,40,20.30
2013,08,04,12,41,20.40
2013,08,04,12,42,20.40
2013,08,04,12,43,20.40
2013,08,04,12,44,20.40
2013,08,04,12,45,20.40
2013,08,04,12,46,20.50
2013,08,04,12,47,20.50
2013,08,04,12,48,20.60
2013,08,04,12,49,20.50
2013,08,04,12,50,20.40
2013,08,04,12,51,20.40
2013,08,04,12,52,20.30
2013,08,04,12,53,20.20
2013,08,04,12,54,20.20
2013,08,04,12,55,20.10
2013,08,04,12,56,20.20
2013,08,04,12,57,20.20
2013,08,04,12,58,20.20
2013,08,04,12,59,20.20
2013,08,04,13,00,20.20
2013,08,04,13,01,20.30
2013,08,04,13,02,20.20
2013,08,04,13,03,20.20
2013,08,04,13,04,20.30
2013,08,04,13,05,20.30
2013,08,04,13,06,20.30
2013,08,04,13,07,20.40
2013,08,04,13,08,20.50
2013,08,04,13,09,20.60
2013,08,04,13,10,20.50
2013,08,04,13,11,20.50
2013,08,04,13,12,20.60
2013,08,04,13,13,20.60
2013,08,04,13,14,20.70
2013,08,04,13,15,20.70
2013,08,04,13,16,20.70
2013,08,04,13,17,20.60
2013,08,04,13,18,20.50
2013,08,04,13,19,20.50
2013,08,04,13,20,20.60
2013,08,04,13,21,20.70
2013,08,04,13,22,20.80
2013,08,04,13,23,20.80
2013,08,04,13,24,20.90
2013,08,04,13,25,20.90
2013,08,04,13,26,20.80
2013,08,04,13,27,20.80
2013,08,04,13,28,20.90
2013,08,04,13,29,20.80
2013,08,04,13,30,20.90
2013,08,04,13,31,20.90
2013,08,04,13,32,21.00
2013,08,04,13,33,21.10
2013,08,04,13,34,21.10
2013,08,04,13,35,21.20
2013,08,04,13,36,21.20
2013,08,04,13,37,21.20
2013,08,04,13,38,21.30
2013,08,04,13,39,21.30
2013,08,04,13,40,21.30
2013,08,04,13,41,21.30
2013,08,04,13,42,21.40
2013,08,04,13,43,21.40
2013,08,04,13,44,21.50
2013,08,04,13,45,21.50
2013,08,04,13,46,21.50
2013,08,04,13,47,21.60
2013,08,04,13,48,21.60
2013,08,04,13,49,21.60
2013,08,04,13,50,21.70
2013,08,04,13,51,21.70
2013,08,04,13,52,21.80
2013,08,04,13,53,21.90
2013,08,04,13,54,22.00
2013,08,04,13,55,22.00
2013,08,04,13,56,21.90
2013,08,04,13,57,21.80
2013,08,04,13,58,21.80
2013,08,04,13,59,21.90
2013,08,04,14,00,21.90
2013,08,04,14,01,21.90
2013,08,04,14,02,21.90
2013,08,04,14,03,22.00
2013,08,04,14,04,21.90
2013,08,04,14,05,21.80
2013,08,04,14,06,21.70
2013,08,04,14,07,21.70
2013,08,04,14,08,21.60
2013,08,04,14,09,21.60
2013,08,04,14,10,21.60
2013,08,04,14,11,21.60
2013,08,04,14,12,21.60
2013,08,04,14,13,21.60
2013,08,04,14,14,21.70
2013,08,04,14,15,21.80
2013,08,04,14,16,21.80
2013,08,04,14,17,21.80
2013,08,04,14,18,21.80
2013,08,04,14,19,21.90
2013,08,04,14,20,21.90
2013,08,04,14,21,22.00
2013,08,04,14,22,22.00
2013,08,04,14,23,22.00
2013,08,04,14,24,22.10
2013,08,04,14,25,22.10
2013,08,04,14,26,22.20
2013,08,04,14,27,22.20
2013,08,04,14,28,22.20
2013,08,04,14,29,22.10
2013,08,04,14,30,22.10
2013,08,04,14,31,22.10
2013,08,04,14,32,22.10
2013,08,04,14,33,22.10
2013,08,04,14,34,22.10
2013,08,04,14,35,22.20
2013,08,04,14,36,22.20
2013,08,04,14,37,22.20
2013,08,04,14,38,22.20
2013,08,04,14,39,22.20
2013,08,04,14,40,22.20
2013,08,04,14,41,22.20
2013,08,04,14,42,22.30
2013,08,04,14,43,22.30
2013,08,04,14,44,22.30
2013,08,04,14,45,22.30
2013,08,04,14,46,22.40
2013,08,04,14,47,22.40
2013,08,04,14,48,22.30
2013,08,04,14,49,22.20
2013,08,04,14,50,22.30
2013,08,04,14,51,22.30
2013,08,04,14,52,22.30
2013,08,04,14,53,22.30
2013,08,04,14,54,22.40
2013,08,04,14,55,22.40
2013,08,04,14,56,22.50
2013,08,04,14,57,22.60
2013,08,04,14,58,22.60
2013,08,04,14,59,22.60
2013,08,04,15,00,22.60
2013,08,04,15,01,22.70
2013,08,04,15,02,22.90
2013,08,04,15,03,22.90
2013,08,04,15,04,22.90
2013,08,04,15,05,22.80
2013,08,04,15,06,22.70
2013,08,04,15,07,22.70
2013,08,04,15,08,22.70
2013,08,04,15,09,22.70
2013,08,04,15,10,22.70
2013,08,04,15,11,22.70
2013,08,04,15,12,22.70
2013,08,04,15,13,22.70
2013,08,04,15,14,22.70
2013,08,04,15,15,22.80
2013,08,04,15,16,22.80
2013,08,04,15,17,22.80
2013,08,04,15,18,22.80
2013,08,04,15,19,22.70
2013,08,04,15,20,22.70
2013,08,04,15,21,22.70
2013,08,04,15,22,22.70
2013,08,04,15,23,22.70
2013,08,04,15,24,22.70
2013,08,04,15,25,22.70
2013,08,04,15,26,22.70
2013,08,04,15,27,22.70
2013,08,04,15,28,22.70
2013,08,04,15,29,22.70
2013,08,04,15,30,22.70
2013,08,04,15,31,22.80
2013,08,04,15,32,22.80
2013,08,04,15,33,22.80
2013,08,04,15,34,22.80
2013,08,04,15,35,22.80
2013,08,04,15,36,22.80
2013,08,04,15,37,22.70
2013,08,04,15,38,22.70
2013,08,04,15,39,22.70
2013,08,04,15,40,22.60
2013,08,04,15,41,22.50
2013,08,04,15,42,22.40
2013,08,04,15,43,22.40
2013,08,04,15,44,22.40
2013,08,04,15,45,22.40
2013,08,04,15,46,22.50
2013,08,04,15,47,22.50
2013,08,04,15,48,22.60
2013,08,04,15,49,22.70
2013,08,04,15,50,22.80
2013,08,04,15,51,22.90
2013,08,04,15,52,22.90
2013,08,04,15,53,23.00
2013,08,04,15,54,23.00
2013,08,04,15,55,23.00
2013,08,04,15,56,23.00
2013,08,04,15,57,23.10
2013,08,04,15,58,23.20
2013,08,04,15,59,23.20
2013,08,04,16,00,23.20
2013,08,04,16,01,23.20
2013,08,04,16,02,23.30
2013,08,04,16,03,23.40
2013,08,04,16,04,23.40
2013,08,04,16,05,23.50
2013,08,04,16,06,23.50
2013,08,04,16,07,23.60
2013,08,04,16,08,23.60
2013,08,04,16,09,23.60
2013,08,04,16,10,23.50
2013,08,04,16,11,23.40
2013,08,04,16,12,23.30
2013,08,04,16,13,23.30
2013,08,04,16,14,23.30
2013,08,04,16,15,23.30
2013,08,04,16,16,23.30
2013,08,04,16,17,23.30
2013,08,04,16,18,23.30
2013,08,04,16,19,23.30
2013,08,04,16,20,23.30
2013,08,04,16,21,23.30
2013,08,04,16,22,23.30
2013,08,04,16,23,23.30
2013,08,04,16,24,23.40
2013,08,04,16,25,23.40
2013,08,04,16,26,23.50
2013,08,04,16,27,23.50
2013,08,04,16,28,23.60
2013,08,04,16,29,23.70
2013,08,04,16,30,23.70
2013,08,04,16,31,23.80
2013,08,04,16,32,23.80
2013,08,04,16,33,23.70
2013,08,04,16,34,23.70
2013,08,04,16,35,23.70
2013,08,04,16,36,23.60
2013,08,04,16,37,23.50
2013,08,04,16,38,23.40
2013,08,04,16,39,23.40
2013,08,04,16,40,23.40
2013,08,04,16,41,23.40
2013,08,04,16,42,23.40
2013,08,04,16,43,23.50
2013,08,04,16,44,23.50
2013,08,04,16,45,23.60
2013,08,04,16,46,23.70
2013,08,04,16,47,23.70
2013,08,04,16,48,23.80
2013,08,04,16,49,23.80
2013,08,04,16,50,23.90
2013,08,04,16,51,23.90
2013,08,04,16,52,23.90
2013,08,04,16,53,23.90
2013,08,04,16,54,24.00
2013,08,04,16,55,24.00
2013,08,04,16,56,24.10
2013,08,04,16,57,24.10
2013,08,04,16,58,24.10
2013,08,04,16,59,24.10
2013,08,04,17,00,24.20
2013,08,04,17,01,24.20
2013,08,04,17,02,24.30
2013,08,04,17,03,24.30
2013,08,04,17,04,24.40
2013,08,04,17,05,24.50
2013,08,04,17,06,24.60
2013,08,04,17,07,24.70
2013,08,04,17,08,24.80
2013,08,04,17,09,24.90
2013,08,04,17,10,25.00
2013,08,04,17,11,25.00
2013,08,04,17,12,25.10
2013,08,04,17,13,25.20
2013,08,04,17,14,25.30
2013,08,04,17,15,25.40
2013,08,04,17,16,25.40
2013,08,04,17,17,25.50
2013,08,04,17,18,25.60
2013,08,04,17,19,25.70
2013,08,04,17,20,25.80
2013,08,04,17,21,25.90
2013,08,04,17,22,25.90
2013,08,04,17,23,26.00
2013,08,04,17,24,26.10
2013,08,04,17,25,26.20
2013,08,04,17,26,26.00
2013,08,04,17,27,25.90
2013,08,04,17,28,25.80
2013,08,04,17,29,25.80
2013,08,04,17,30,25.80
2013,08,04,17,31,25.80
2013,08,04,17,32,25.80
2013,08,04,17,33,25.80
2013,08,04,17,34,25.70
2013,08,04,17,35,25.70
2013,08,04,17,36,25.70
2013,08,04,17,37,25.70
2013,08,04,17,38,25.80
2013,08,04,17,39,25.80
2013,08,04,17,40,25.80
2013,08,04,17,41,25.80
2013,08,04,17,42,25.80
2013,08,04,17,43,25.90
2013,08,04,17,44,25.80
2013,08,04,17,45,25.80
2013,08,04,17,46,25.80
2013,08,04,17,47,25.70
2013,08,04,17,48,25.70
2013,08,04,17,49,25.60
2013,08,04,17,50,25.60
2013,08,04,17,51,25.60
2013,08,04,17,52,25.60
2013,08,04,17,53,25.50
2013,08,04,17,54,25.50
2013,08,04,17,55,25.50
2013,08,04,17,56,25.40
2013,08,04,17,57,25.40
2013,08,04,17,58,25.40
2013,08,04,17,59,25.30
2013,08,04,18,00,25.30
2013,08,04,18,01,25.40
2013,08,04,18,02,25.40
2013,08,04,18,03,25.40
2013,08,04,18,04,25.40
2013,08,04,18,05,25.40
2013,08,04,18,06,25.40
2013,08,04,18,07,25.30
2013,08,04,18,08,25.30
2013,08,04,18,09,25.40
2013,08,04,18,10,25.40
2013,08,04,18,11,25.40
2013,08,04,18,12,25.40
2013,08,04,18,13,25.40
2013,08,04,18,14,25.50
2013,08,04,18,15,25.50
2013,08,04,18,16,25.50
2013,08,04,18,17,25.50
2013,08,04,18,18,25.50
2013,08,04,18,19,25.60
2013,08,04,18,20,25.60
2013,08,04,18,21,25.70
2013,08,04,18,22,25.70
2013,08,04,18,23,25.80
2013,08,04,18,24,25.90
2013,08,04,18,25,25.90
2013,08,04,18,26,26.00
2013,08,04,18,27,26.00
2013,08,04,18,28,26.10
2013,08,04,18,29,26.20
2013,08,04,18,30,26.20
2013,08,04,18,31,26.20
2013,08,04,18,32,26.20
2013,08,04,18,33,26.20
2013,08,04,18,34,26.10
2013,08,04,18,35,26.10
2013,08,04,18,36,26.10
2013,08,04,18,37,26.10
2013,08,04,18,38,26.10
2013,08,04,18,39,26.20
2013,08,04,18,40,26.20
2013,08,04,18,41,26.20
2013,08,04,18,42,26.20
2013,08,04,18,43,26.20
2013,08,04,18,44,26.20
2013,08,04,18,45,26.20
2013,08,04,18,46,26.20
2013,08,04,18,47,26.20
2013,08,04,18,48,26.20
2013,08,04,18,49,26.20
2013,08,04,18,50,26.20
2013,08,04,18,51,26.20
2013,08,04,18,52,26.20
2013,08,04,18,53,26.20
2013,08,04,18,54,26.20
2013,08,04,18,55,26.20
